Regional Weather Roundup
Issued by NWS Jackson, KY

Home | Current Version | Previous Version | Text Only | Print | Product List | Glossary Off
Versions: 1 2 3 4 5 6 7 8 9 10 11 12 13 14 15 16 17 18 19 20 21 22 23 24 25 26 27 28 29 30 31 32 33 34 35 36 37 38 39 40 41 42 43 44 45 46 47 48 49 50

000
ASUS43 KJKL 161311
RWRJKL

EAST KENTUCKY HOURLY WEATHER ROUNDUP
NATIONAL WEATHER SERVICE JACKSON KY
900 AM EDT TUE SEP 16 2014

NOTE: "FAIR" INDICATES FEW OR NO CLOUDS BELOW 12,000 FEET WITH
NO SIGNIFICANT WEATHER AND/OR OBSTRUCTIONS TO VISIBILITY.

* THESE REPORTS ARE NOT UNDER NWS QUALITY CONTROL AND MAY NOT
  REPORT WEATHER SUCH AS PRECIPITATION AND FOG.

KYZ079-080-083-085-087-088-110-112-115-119-120-161400
...EASTERN KENTUCKY...

CITY           SKY/WX    TMP DP  RH WIND       PRES   REMARKS
JACKSON        FOG       62  61  96 CALM      30.12S VSB 1/4
LONDON         CLOUDY    66  61  84 W6        30.12S
MONTICELLO*    PTSUNNY   66  65  97 CALM      30.14S FOG
WILLIAMSBURG*  CLOUDY    63  63 100 CALM      30.12F
MIDDLESBORO*   RAIN      67  64  89 CALM      30.12S
HARLAN APT*    CLOUDY    63  63 100 MISG      30.13S
BLACK MTN*       N/A     57  57 100 CALM        N/A
PIKEVILLE APT* CLOUDY    61  61 100 CALM      30.12R FOG
BIG SANDY*     CLOUDY    62  61  98 W3        30.12R
MOREHEAD APT*  LGT RAIN  61  59  94 NE5       30.14S VSB 3/4
$$

KYZ035-036-041-042-044-050-067-078-099-161400
...CENTRAL KENTUCKY...

CITY           SKY/WX    TMP DP  RH WIND       PRES   REMARKS
MT STERLING*   FOG       59  59 100 NE6       30.14R VSB 1
FLEMING/MASON* CLOUDY    57  57 100 N5        30.15S FOG
DANVILLE*      CLOUDY    63  61  94 NW5       30.13R FOG
RICHMOND*      CLOUDY    63  61  94 CALM      30.11S
LEXINGTON      CLOUDY    61  58  90 NE9       30.13R FOG
FRANKFORT      CLOUDY    60  58  92 N5        30.13S
$$

KYZ091>093-OHZ055-061-077-WVZ005-015-034-035-042-161400
...SOUTHERN OHIO/WEST VIRGINIA...

CITY           SKY/WX    TMP DP  RH WIND       PRES   REMARKS
COVINGTON      CLOUDY    58  54  86 N10       30.16R
COLUMBUS       CLOUDY    56  49  77 N9        30.16R
DAYTON         CLOUDY    55  51  86 NE5       30.19R FOG
WILMINGTON     CLOUDY    54  49  83 NE12      30.16S
HUNTINGTON     CLOUDY    58  58 100 CALM      30.12S FOG
CHARLESTON     CLOUDY    61  60  97 CALM      30.11R
PINEVILLE*     CLOUDY    63  63 100 MISG      30.17R
BECKLEY        LGT RAIN  58  56  93 NE3       30.13S FOG
BLUEFIELD      CLOUDY    62  57  83 W5        30.15S
$$

VAZ002-007-008-TNZ017-027-036-066-071-161400
...SOUTHWEST VIRGINIA/EAST TENNESSEE...

CITY           SKY/WX    TMP DP  RH WIND       PRES   REMARKS
WISE*          CLOUDY    63  61  94 CALM      30.16S
JONESVILLE*    CLOUDY    66  66 100 CALM      30.13F
ABINGDON*      CLOUDY    67  67 100 W5        30.13S FOG
BRISTOL        CLOUDY    68  64  87 CALM      30.12S FOG
KNOXVILLE      PTSUNNY   71  68  90 SW7       30.10S
OAK RIDGE      CLOUDY    72  66  81 CALM      30.12S
CROSSVILLE     CLOUDY    68  61  78 NW5       30.16S
NASHVILLE      PTSUNNY   69  64  84 VRB5      30.12S
$$

...KEY TO REMARKS...
VSB - VISIBILITY IN MILES
WCI - WIND CHILL INDEX
HX  - HEAT INDEX

$$



USA.gov is the U.S. government's official web portal to all federal, state and local government web resources and services.